SKYSAT-C11

Last updated on Tue Oct 21 2025 00:02:31 GMT+0000 (Coordinated Universal Time)

1 42987U 17068A 25293.34258417 .00031747 00000+0 68672-3 0 9990 2 42987 97.4105 69.6544 0000771 63.7167 296.4161 15.44422893446068
UTC large
Height (km)
Speed (km/s)
/
Latitude / Longitude
Inclination (degrees)
Orbital Period (minutes)
Azimuth
Elevation
Range (km)
Doppler Factor

Next 0 passes for location: London (51.5072 / 0.1276)

Sorry there are no passes over London.